Year,Month,Day,Hour,Minute,Value (Times are PST for temperature in C)
2016,07,17,10,19,19.70
2016,07,17,10,20,19.70
2016,07,17,10,21,19.70
2016,07,17,10,22,19.70
2016,07,17,10,23,19.70
2016,07,17,10,24,19.60
2016,07,17,10,25,19.40
2016,07,17,10,26,19.30
2016,07,17,10,27,19.20
2016,07,17,10,28,19.10
2016,07,17,10,29,19.00
2016,07,17,10,30,18.90
2016,07,17,10,31,18.80
2016,07,17,10,32,18.70
2016,07,17,10,33,18.70
2016,07,17,10,34,18.70
2016,07,17,10,35,18.70
2016,07,17,10,36,18.80
2016,07,17,10,37,18.90
2016,07,17,10,38,18.90
2016,07,17,10,39,19.00
2016,07,17,10,40,19.10
2016,07,17,10,41,19.10
2016,07,17,10,42,19.10
2016,07,17,10,43,19.10
2016,07,17,10,44,19.10
2016,07,17,10,45,19.10
2016,07,17,10,46,19.10
2016,07,17,10,47,19.20
2016,07,17,10,48,19.20
2016,07,17,10,49,19.20
2016,07,17,10,50,19.20
2016,07,17,10,51,19.20
2016,07,17,10,52,19.20
2016,07,17,10,53,19.30
2016,07,17,10,54,19.30
2016,07,17,10,55,19.40
2016,07,17,10,56,19.40
2016,07,17,10,57,19.40
2016,07,17,10,58,19.50
2016,07,17,10,59,19.60
2016,07,17,11,00,19.60
2016,07,17,11,01,19.60
2016,07,17,11,02,19.60
2016,07,17,11,03,19.60
2016,07,17,11,04,19.70
2016,07,17,11,05,19.80
2016,07,17,11,06,19.90
2016,07,17,11,07,20.00
2016,07,17,11,08,20.10
2016,07,17,11,09,20.20
2016,07,17,11,10,20.20
2016,07,17,11,11,20.20
2016,07,17,11,12,20.20
2016,07,17,11,13,20.10
2016,07,17,11,14,20.10
2016,07,17,11,15,20.20
2016,07,17,11,16,20.20
2016,07,17,11,17,20.20
2016,07,17,11,18,20.30
2016,07,17,11,19,20.30
2016,07,17,11,20,20.30
2016,07,17,11,21,20.30
2016,07,17,11,22,20.30
2016,07,17,11,23,20.40
2016,07,17,11,24,20.40
2016,07,17,11,25,20.50
2016,07,17,11,26,20.60
2016,07,17,11,27,20.70
2016,07,17,11,28,20.80
2016,07,17,11,29,20.80
2016,07,17,11,30,20.70
2016,07,17,11,31,20.70
2016,07,17,11,32,20.60
2016,07,17,11,33,20.60
2016,07,17,11,34,20.70
2016,07,17,11,35,20.80
2016,07,17,11,36,20.90
2016,07,17,11,37,21.00
2016,07,17,11,38,21.10
2016,07,17,11,39,21.20
2016,07,17,11,40,21.20
2016,07,17,11,41,21.20
2016,07,17,11,42,21.30
2016,07,17,11,43,21.30
2016,07,17,11,44,21.30
2016,07,17,11,45,21.40
2016,07,17,11,46,21.60
2016,07,17,11,47,21.60
2016,07,17,11,48,21.60
2016,07,17,11,49,21.40
2016,07,17,11,50,21.30
2016,07,17,11,51,21.30
2016,07,17,11,52,21.40
2016,07,17,11,53,21.60
2016,07,17,11,54,21.70
2016,07,17,11,55,21.80
2016,07,17,11,56,21.80
2016,07,17,11,57,21.90
2016,07,17,11,58,21.90
2016,07,17,11,59,21.90
2016,07,17,12,00,21.90
2016,07,17,12,01,21.90
2016,07,17,12,02,21.90
2016,07,17,12,03,22.00
2016,07,17,12,04,22.10
2016,07,17,12,05,22.10
2016,07,17,12,06,22.10
2016,07,17,12,07,22.10
2016,07,17,12,08,22.00
2016,07,17,12,09,22.00
2016,07,17,12,10,21.90
2016,07,17,12,11,21.90
2016,07,17,12,12,21.90
2016,07,17,12,13,21.90
2016,07,17,12,14,21.90
2016,07,17,12,15,21.90
2016,07,17,12,16,21.90
2016,07,17,12,17,21.90
2016,07,17,12,18,21.90
2016,07,17,12,19,22.00
2016,07,17,12,20,22.00
2016,07,17,12,21,22.00
2016,07,17,12,22,22.00
2016,07,17,12,23,21.90
2016,07,17,12,24,21.90
2016,07,17,12,25,21.80
2016,07,17,12,26,21.70
2016,07,17,12,27,21.70
2016,07,17,12,28,21.80
2016,07,17,12,29,21.90
2016,07,17,12,30,22.00
2016,07,17,12,31,22.00
2016,07,17,12,32,22.00
2016,07,17,12,33,21.90
2016,07,17,12,34,21.90
2016,07,17,12,35,21.90
2016,07,17,12,36,21.80
2016,07,17,12,37,21.80
2016,07,17,12,38,21.70
2016,07,17,12,39,21.60
2016,07,17,12,40,21.50
2016,07,17,12,41,21.40
2016,07,17,12,42,21.30
2016,07,17,12,43,21.30
2016,07,17,12,44,21.40
2016,07,17,12,45,21.40
2016,07,17,12,46,21.30
2016,07,17,12,47,21.30
2016,07,17,12,48,21.30
2016,07,17,12,49,21.30
2016,07,17,12,50,21.30
2016,07,17,12,51,21.30
2016,07,17,12,52,21.30
2016,07,17,12,53,21.30
2016,07,17,12,54,21.40
2016,07,17,12,55,21.60
2016,07,17,12,56,21.70
2016,07,17,12,57,21.80
2016,07,17,12,58,21.70
2016,07,17,12,59,21.80
2016,07,17,13,00,21.90
2016,07,17,13,01,21.70
2016,07,17,13,02,21.60
2016,07,17,13,03,21.40
2016,07,17,13,04,21.40
2016,07,17,13,05,21.30
2016,07,17,13,06,21.30
2016,07,17,13,07,21.30
2016,07,17,13,08,21.20
2016,07,17,13,09,21.20
2016,07,17,13,10,21.20
2016,07,17,13,11,21.30
2016,07,17,13,12,21.20
2016,07,17,13,13,21.20
2016,07,17,13,14,21.20
2016,07,17,13,15,21.20
2016,07,17,13,16,21.30
2016,07,17,13,17,21.50
2016,07,17,13,18,21.70
2016,07,17,13,19,21.80
2016,07,17,13,20,21.70
2016,07,17,13,21,21.60
2016,07,17,13,22,21.50
2016,07,17,13,23,21.40
2016,07,17,13,24,21.30
2016,07,17,13,25,21.30
2016,07,17,13,26,21.20
2016,07,17,13,27,21.10
2016,07,17,13,28,21.10
2016,07,17,13,29,21.10
2016,07,17,13,30,21.30
2016,07,17,13,31,21.50
2016,07,17,13,32,21.60
2016,07,17,13,33,21.80
2016,07,17,13,34,22.00
2016,07,17,13,35,22.10
2016,07,17,13,36,22.10
2016,07,17,13,37,22.00
2016,07,17,13,38,22.00
2016,07,17,13,39,21.70
2016,07,17,13,40,21.60
2016,07,17,13,41,21.60
2016,07,17,13,42,21.70
2016,07,17,13,43,21.90
2016,07,17,13,44,21.90
2016,07,17,13,45,22.00
2016,07,17,13,46,22.00
2016,07,17,13,47,22.10
2016,07,17,13,48,22.20
2016,07,17,13,49,22.00
2016,07,17,13,50,22.10
2016,07,17,13,51,22.20
2016,07,17,13,52,22.20
2016,07,17,13,53,22.20
2016,07,17,13,54,22.20
2016,07,17,13,55,22.20
2016,07,17,13,56,22.30
2016,07,17,13,57,22.40
2016,07,17,13,58,22.50
2016,07,17,13,59,22.50
2016,07,17,14,00,22.40
2016,07,17,14,01,22.50
2016,07,17,14,02,22.60
2016,07,17,14,03,22.60
2016,07,17,14,04,22.70
2016,07,17,14,05,22.60
2016,07,17,14,06,22.70
2016,07,17,14,07,22.70
2016,07,17,14,08,22.70
2016,07,17,14,09,22.80
2016,07,17,14,10,22.90
2016,07,17,14,11,22.80
2016,07,17,14,12,22.80
2016,07,17,14,13,22.80
2016,07,17,14,14,22.90
2016,07,17,14,15,22.80
2016,07,17,14,16,22.70
2016,07,17,14,17,22.60
2016,07,17,14,18,22.80
2016,07,17,14,19,22.90
2016,07,17,14,20,23.00
2016,07,17,14,21,22.90
2016,07,17,14,22,22.90
2016,07,17,14,23,22.90
2016,07,17,14,24,22.90
2016,07,17,14,25,22.90
2016,07,17,14,26,22.90
2016,07,17,14,27,22.90
2016,07,17,14,28,22.80
2016,07,17,14,29,22.80
2016,07,17,14,30,22.70
2016,07,17,14,31,22.60
2016,07,17,14,32,22.50
2016,07,17,14,33,22.40
2016,07,17,14,34,22.40
2016,07,17,14,35,22.40
2016,07,17,14,36,22.50
2016,07,17,14,37,22.50
2016,07,17,14,38,22.50
2016,07,17,14,39,22.40
2016,07,17,14,40,22.40
2016,07,17,14,41,22.40
2016,07,17,14,42,22.40
2016,07,17,14,43,22.40
2016,07,17,14,44,22.40
2016,07,17,14,45,22.40
2016,07,17,14,46,22.50
2016,07,17,14,47,22.50
2016,07,17,14,48,22.50
2016,07,17,14,49,22.60
2016,07,17,14,50,22.70
2016,07,17,14,51,22.80
2016,07,17,14,52,22.70
2016,07,17,14,53,22.70
2016,07,17,14,54,22.70
2016,07,17,14,55,22.70
2016,07,17,14,56,22.60
2016,07,17,14,57,22.60
2016,07,17,14,58,22.70
2016,07,17,14,59,22.70
2016,07,17,15,00,22.70
2016,07,17,15,01,22.70
2016,07,17,15,02,22.60
2016,07,17,15,03,22.60
2016,07,17,15,04,22.60
2016,07,17,15,05,22.50
2016,07,17,15,06,22.30
2016,07,17,15,07,22.40
2016,07,17,15,08,22.50
2016,07,17,15,09,22.60
2016,07,17,15,10,22.60
2016,07,17,15,11,22.70
2016,07,17,15,12,22.70
2016,07,17,15,13,22.80
2016,07,17,15,14,22.80
2016,07,17,15,15,22.90
2016,07,17,15,16,22.90
2016,07,17,15,17,22.70
2016,07,17,15,18,22.70
2016,07,17,15,19,22.70
2016,07,17,15,20,22.60
2016,07,17,15,21,22.60
2016,07,17,15,22,22.50
2016,07,17,15,23,22.50
2016,07,17,15,24,22.40
2016,07,17,15,25,22.30
2016,07,17,15,26,22.30
2016,07,17,15,27,22.40
2016,07,17,15,28,22.50
2016,07,17,15,29,22.50
2016,07,17,15,30,22.50
2016,07,17,15,31,22.50
2016,07,17,15,32,22.60
2016,07,17,15,33,22.60
2016,07,17,15,34,22.60
2016,07,17,15,35,22.70
2016,07,17,15,36,22.70
2016,07,17,15,37,22.70
2016,07,17,15,38,22.80
2016,07,17,15,39,22.90
2016,07,17,15,40,22.90
2016,07,17,15,41,22.90
2016,07,17,15,42,22.80
2016,07,17,15,43,22.80
2016,07,17,15,44,22.80
2016,07,17,15,45,22.80
2016,07,17,15,46,22.80
2016,07,17,15,47,22.80
2016,07,17,15,48,22.70
2016,07,17,15,49,22.70
2016,07,17,15,50,22.60
2016,07,17,15,51,22.50
2016,07,17,15,52,22.40
2016,07,17,15,53,22.50
2016,07,17,15,54,22.50
2016,07,17,15,55,22.40
2016,07,17,15,56,22.40
2016,07,17,15,57,22.40
2016,07,17,15,58,22.40
2016,07,17,15,59,22.40
2016,07,17,16,00,22.40
2016,07,17,16,01,22.40
2016,07,17,16,02,22.50
2016,07,17,16,03,22.60
2016,07,17,16,04,22.70
2016,07,17,16,05,22.70
2016,07,17,16,06,22.70
2016,07,17,16,07,22.70
2016,07,17,16,08,22.80
2016,07,17,16,09,22.70
2016,07,17,16,10,22.70
2016,07,17,16,11,22.70
2016,07,17,16,12,22.70
2016,07,17,16,13,22.70
2016,07,17,16,14,22.80
2016,07,17,16,15,22.80
2016,07,17,16,16,22.80
2016,07,17,16,17,22.70
2016,07,17,16,18,22.70
2016,07,17,16,19,22.70
2016,07,17,16,20,22.70
2016,07,17,16,21,22.60
2016,07,17,16,22,22.50
2016,07,17,16,23,22.60
2016,07,17,16,24,22.60
2016,07,17,16,25,22.70
2016,07,17,16,26,22.80
2016,07,17,16,27,22.90
2016,07,17,16,28,22.90
2016,07,17,16,29,22.80
2016,07,17,16,30,22.70
2016,07,17,16,31,22.70
2016,07,17,16,32,22.60
2016,07,17,16,33,22.60
2016,07,17,16,34,22.60
2016,07,17,16,35,22.60
2016,07,17,16,36,22.50
2016,07,17,16,37,22.30
2016,07,17,16,38,22.20
2016,07,17,16,39,22.10
2016,07,17,16,40,22.10
2016,07,17,16,41,22.10
2016,07,17,16,42,22.10
2016,07,17,16,43,22.10
2016,07,17,16,44,22.20
2016,07,17,16,45,22.20
2016,07,17,16,46,22.20
2016,07,17,16,47,22.30
2016,07,17,16,48,22.40
2016,07,17,16,49,22.50
2016,07,17,16,50,22.50
2016,07,17,16,51,22.40
2016,07,17,16,52,22.40
2016,07,17,16,53,22.50
2016,07,17,16,54,22.50
2016,07,17,16,55,22.40
2016,07,17,16,56,22.40
2016,07,17,16,57,22.40
2016,07,17,16,58,22.50
2016,07,17,16,59,22.60
2016,07,17,17,00,22.50
2016,07,17,17,01,22.50
2016,07,17,17,02,22.40
2016,07,17,17,03,22.40
2016,07,17,17,04,22.40
2016,07,17,17,05,22.30
2016,07,17,17,06,22.30
2016,07,17,17,07,22.30
2016,07,17,17,08,22.30
2016,07,17,17,09,22.30
2016,07,17,17,10,22.30
2016,07,17,17,11,22.30
2016,07,17,17,12,22.30
2016,07,17,17,13,22.30
2016,07,17,17,14,22.40
2016,07,17,17,15,22.40
2016,07,17,17,16,22.50
2016,07,17,17,17,22.60
2016,07,17,17,18,22.60
2016,07,17,17,19,22.60
2016,07,17,17,20,22.70
2016,07,17,17,21,22.70
2016,07,17,17,22,22.80
2016,07,17,17,23,22.80
2016,07,17,17,24,22.80
2016,07,17,17,25,22.80
2016,07,17,17,26,22.80
2016,07,17,17,27,22.70
2016,07,17,17,28,22.70
2016,07,17,17,29,22.80
2016,07,17,17,30,22.80
2016,07,17,17,31,22.90
2016,07,17,17,32,22.90
2016,07,17,17,33,22.80
2016,07,17,17,34,22.80
2016,07,17,17,35,22.70
2016,07,17,17,36,22.60
2016,07,17,17,37,22.50
2016,07,17,17,38,22.50
2016,07,17,17,39,22.50
2016,07,17,17,40,22.60
2016,07,17,17,41,22.60
2016,07,17,17,42,22.50
2016,07,17,17,43,22.50
2016,07,17,17,44,22.50
2016,07,17,17,45,22.50
2016,07,17,17,46,22.60
2016,07,17,17,47,22.60
2016,07,17,17,48,22.70
2016,07,17,17,49,22.70
2016,07,17,17,50,22.70
2016,07,17,17,51,22.60
2016,07,17,17,52,22.60
2016,07,17,17,53,22.60
2016,07,17,17,54,22.50
2016,07,17,17,55,22.40
2016,07,17,17,56,22.40
2016,07,17,17,57,22.40
2016,07,17,17,58,22.30
2016,07,17,17,59,22.20
2016,07,17,18,00,22.20
2016,07,17,18,01,22.20
2016,07,17,18,02,22.20
2016,07,17,18,03,22.30
2016,07,17,18,04,22.30
2016,07,17,18,05,22.30
2016,07,17,18,06,22.30
2016,07,17,18,07,22.40
2016,07,17,18,08,22.30
2016,07,17,18,09,22.30
2016,07,17,18,10,22.30
2016,07,17,18,11,22.30
2016,07,17,18,12,22.30
2016,07,17,18,13,22.30
2016,07,17,18,14,22.30
2016,07,17,18,15,22.40
2016,07,17,18,16,22.40
2016,07,17,18,17,22.40
2016,07,17,18,18,22.40
2016,07,17,18,19,22.40
2016,07,17,18,20,22.40
2016,07,17,18,21,22.40
2016,07,17,18,22,22.40
2016,07,17,18,23,22.50
2016,07,17,18,24,22.50
2016,07,17,18,25,22.50
2016,07,17,18,26,22.50
2016,07,17,18,27,22.40
2016,07,17,18,28,22.40
2016,07,17,18,29,22.40
2016,07,17,18,30,22.40
2016,07,17,18,31,22.20
2016,07,17,18,32,22.20
2016,07,17,18,33,22.10
2016,07,17,18,34,22.10
2016,07,17,18,35,22.10
2016,07,17,18,36,22.10
2016,07,17,18,37,22.10
2016,07,17,18,38,22.20
2016,07,17,18,39,22.20
2016,07,17,18,40,22.30
2016,07,17,18,41,22.40
2016,07,17,18,42,22.50
2016,07,17,18,43,22.60
2016,07,17,18,44,22.60
2016,07,17,18,45,22.70
2016,07,17,18,46,22.80
2016,07,17,18,47,22.80
2016,07,17,18,48,22.90
2016,07,17,18,49,22.90
2016,07,17,18,50,22.90
2016,07,17,18,51,22.90
2016,07,17,18,52,22.90
2016,07,17,18,53,22.90
2016,07,17,18,54,22.90
2016,07,17,18,55,22.90
2016,07,17,18,56,22.90
2016,07,17,18,57,22.90
2016,07,17,18,58,22.90
2016,07,17,18,59,22.90
2016,07,17,19,00,22.90
2016,07,17,19,01,22.90
2016,07,17,19,02,22.90
2016,07,17,19,03,22.90
2016,07,17,19,04,22.90
2016,07,17,19,05,22.90
2016,07,17,19,06,22.90
2016,07,17,19,07,22.90
2016,07,17,19,08,22.90
2016,07,17,19,09,23.10
2016,07,17,19,10,23.10
2016,07,17,19,11,23.10
2016,07,17,19,12,23.10
2016,07,17,19,13,23.10
2016,07,17,19,14,23.00
2016,07,17,19,15,22.90
2016,07,17,19,16,23.00
2016,07,17,19,17,23.10
2016,07,17,19,18,23.10
2016,07,17,19,19,23.10
2016,07,17,19,20,23.20
2016,07,17,19,21,23.20
2016,07,17,19,22,23.20
2016,07,17,19,23,23.20
2016,07,17,19,24,23.20
2016,07,17,19,25,23.20
2016,07,17,19,26,23.20
2016,07,17,19,27,23.20
2016,07,17,19,28,23.20
2016,07,17,19,29,23.20
2016,07,17,19,30,23.20
2016,07,17,19,31,23.20
2016,07,17,19,32,23.20
2016,07,17,19,33,23.20
2016,07,17,19,34,23.20
2016,07,17,19,35,23.20
